FW0153 Weather Reports


Display with metric or nautical units.
time (UTC)temp
F
wind
direction
speed
MPH
gust
MPH
rain 1hr
in
rain 24hr
in
rain mn
in
humidity
%
barometer
mb
20260905004505 85 67 32.0 0.0 0.00 0.00 0.00 63 1008.9
20260905004005 85 80 23.0 0.0 0.00 0.00 0.00 62 1008.9
20260905003505 85 56 27.0 0.0 0.00 0.00 0.00 61 1008.6
20260905003005 86 39 13.0 0.0 0.00 0.00 0.00 60 1008.6
20260905002713 86 84 23.0 0.0 0.00 0.00 0.00 59 1008.6
20260905002212 86 85 32.0 0.0 0.00 0.00 0.00 58 1008.6
20260905001505 86 187 9.0 0.0 0.00 0.00 0.00 57 1008.6
20260905001005 86 100 23.0 0.0 0.00 0.00 0.00 57 1008.6
20260905000505 87 115 9.0 0.0 0.00 0.00 0.00 55 1008.2
20260905000005 88 309 9.0 0.0 0.00 0.00 0.00 54 1008.2
20260904235504 88 168 18.0 0.0 0.00 0.00 0.00 53 1008.2
20260904235005 88 79 27.0 0.0 0.00 0.00 0.00 51 1007.9
20260904234505 89 84 4.0 0.0 0.00 0.00 0.00 50 1007.9
20260904234005 89 103 27.0 0.0 0.00 0.00 0.00 49 1007.9
20260904233505 89 57 4.0 0.0 0.00 0.00 0.00 49 1007.9
20260904233005 89 80 13.0 0.0 0.00 0.00 0.00 48 1007.9
20260904232712 89 156 18.0 0.0 0.00 0.00 0.00 47 1007.9
20260904232211 89 158 9.0 0.0 0.00 0.00 0.00 46 1007.9
20260904231505 90 76 13.0 0.0 0.00 0.00 0.00 46 1007.9
20260904231005 90 45 23.0 0.0 0.00 0.00 0.00 46 1007.9
20260904230505 90 239 9.0 0.0 0.00 0.00 0.00 45 1007.9
20260904230005 90 45 18.0 0.0 0.00 0.00 0.00 45 1007.6
20260904225505 90 144 13.0 0.0 0.00 0.00 0.00 44 1007.6
20260904225005 91 105 9.0 0.0 0.00 0.00 0.00 45 1007.6
20260904224505 91 72 18.0 0.0 0.00 0.00 0.00 43 1007.9
20260904224005 92 80 23.0 0.0 0.00 0.00 0.00 42 1007.9
20260904223505 92 67 23.0 0.0 0.00 0.00 0.00 42 1007.6
20260904223005 92 73 13.0 0.0 0.00 0.00 0.00 41 1007.6
20260904222505 92 86 13.0 0.0 0.00 0.00 0.00 41 1007.9
20260904222005 92 113 13.0 0.0 0.00 0.00 0.00 41 1007.6
20260904221505 92 121 13.0 0.0 0.00 0.00 0.00 40 1007.6
20260904221005 92 98 13.0 0.0 0.00 0.00 0.00 40 1007.6
20260904220505 91 140 9.0 0.0 0.00 0.00 0.00 42 1007.6
20260904220005 92 7 23.0 0.0 0.00 0.00 0.00 42 1007.6
20260904215505 92 148 23.0 0.0 0.00 0.00 0.00 41 1007.6
20260904215005 93 63 13.0 0.0 0.00 0.00 0.00 38 1007.6
20260904214505 94 190 0.0 0.0 0.00 0.00 0.00 37 1007.6
20260904214005 92 23 18.0 0.0 0.00 0.00 0.00 39 1007.6
20260904213505 92 149 4.0 0.0 0.00 0.00 0.00 40 1007.6
20260904213005 94 102 13.0 0.0 0.00 0.00 0.00 38 1007.6
20260904212505 94 92 23.0 0.0 0.00 0.00 0.00 37 1007.6
20260904212005 94 162 4.0 0.0 0.00 0.00 0.00 38 1007.6
20260904211505 93 139 18.0 0.0 0.00 0.00 0.00 39 1007.6
20260904211212 94 74 4.0 0.0 0.00 0.00 0.00 37 1007.6
20260904210505 94 77 4.0 0.0 0.00 0.00 0.00 36 1007.9
20260904210005 94 122 13.0 0.0 0.00 0.00 0.00 36 1007.6
20260904205504 93 150 9.0 0.0 0.00 0.00 0.00 36 1007.9
20260904205005 93 75 9.0 0.0 0.00 0.00 0.00 36 1007.9
20260904204505 93 174 32.0 0.0 0.00 0.00 0.00 35 1007.9
20260904204005 93 101 9.0 0.0 0.00 0.00 0.00 35 1007.9
20260904203505 93 69 4.0 0.0 0.00 0.00 0.00 35 1007.9
20260904203212 93 124 9.0 0.0 0.00 0.00 0.00 36 1007.9
20260904202505 93 165 4.0 0.0 0.00 0.00 0.00 36 1007.9
20260904202005 93 150 32.0 0.0 0.00 0.00 0.00 36 1008.2
20260904201711 93 96 4.0 0.0 0.00 0.00 0.00 36 1008.2
20260904201005 93 68 4.0 0.0 0.00 0.00 0.00 37 1007.9
20260904200505 94 120 0.0 0.0 0.00 0.00 0.00 36 1008.2
20260904200005 94 175 9.0 0.0 0.00 0.00 0.00 35 1008.2
20260904195505 94 158 9.0 0.0 0.00 0.00 0.00 34 1008.2
20260904195005 93 108 13.0 0.0 0.00 0.00 0.00 34 1008.6
20260904194504 92 113 13.0 0.0 0.00 0.00 0.00 37 1008.6
20260904194005 92 162 4.0 0.0 0.00 0.00 0.00 39 1008.6
20260904193505 92 62 4.0 0.0 0.00 0.00 0.00 38 1008.6
20260904193212 93 166 4.0 0.0 0.00 0.00 0.00 41 1008.6
20260904192713 93 30 9.0 0.0 0.00 0.00 0.00 37 1008.9
20260904192005 94 127 9.0 0.0 0.00 0.00 0.00 36 1008.9
20260904191505 93 178 9.0 0.0 0.00 0.00 0.00 39 1008.9
20260904191005 93 69 18.0 0.0 0.00 0.00 0.00 40 1008.9
20260904190505 93 111 4.0 0.0 0.00 0.00 0.00 41 1008.9
20260904190005 93 40 4.0 0.0 0.00 0.00 0.00 40 1008.9
20260904185504 92 169 27.0 0.0 0.00 0.00 0.00 41 1008.9
20260904185005 92 151 4.0 0.0 0.00 0.00 0.00 43 1009.3
20260904184713 91 44 9.0 0.0 0.00 0.00 0.00 44 1009.3
20260904184005 91 37 9.0 0.0 0.00 0.00 0.00 44 1009.3
20260904183505 92 39 4.0 0.0 0.00 0.00 0.00 44 1009.3
20260904183212 92 139 9.0 0.0 0.00 0.00 0.00 41 1009.6
20260904182505 92 93 4.0 0.0 0.00 0.00 0.00 41 1009.6
20260904182005 92 153 9.0 0.0 0.00 0.00 0.00 41 1009.3
20260904181505 92 118 18.0 0.0 0.00 0.00 0.00 42 1009.6
20260904181005 92 48 23.0 0.0 0.00 0.00 0.00 42 1009.9
20260904180505 92 42 13.0 0.0 0.00 0.00 0.00 42 1009.9
20260904180005 92 130 0.0 0.0 0.00 0.00 0.00 43 1009.6
20260904175505 92 122 9.0 0.0 0.00 0.00 0.00 42 1009.9
20260904175213 92 118 4.0 0.0 0.00 0.00 0.00 43 1009.9
20260904174505 91 40 4.0 0.0 0.00 0.00 0.00 44 1009.9
20260904174005 91 84 9.0 0.0 0.00 0.00 0.00 44 1010.3
20260904173505 90 183 13.0 0.0 0.00 0.00 0.00 46 1010.3
20260904173004 90 71 13.0 0.0 0.00 0.00 0.00 47 1010.3
20260904172505 91 174 13.0 0.0 0.00 0.00 0.00 43 1010.6
20260904172005 90 177 9.0 0.0 0.00 0.00 0.00 46 1010.3
20260904171505 89 85 13.0 0.0 0.00 0.00 0.00 48 1010.3
20260904171005 89 148 4.0 0.0 0.00 0.00 0.00 48 1010.3
20260904170505 90 179 13.0 0.0 0.00 0.00 0.00 47 1010.6
20260904170005 89 125 4.0 0.0 0.00 0.00 0.00 49 1010.6
20260904165505 89 99 13.0 0.0 0.00 0.00 0.00 50 1010.6
20260904165005 89 149 18.0 0.0 0.00 0.00 0.00 49 1010.6
20260904164505 89 119 18.0 0.0 0.00 0.00 0.00 51 1010.6
20260904164005 88 172 27.0 0.0 0.00 0.00 0.00 52 1010.6
20260904163505 89 21 13.0 0.0 0.00 0.00 0.00 50 1011.0
20260904163005 89 32 9.0 0.0 0.00 0.00 0.00 50 1011.0
20260904162505 89 177 13.0 0.0 0.00 0.00 0.00 52 1010.6
20260904162005 88 128 4.0 0.0 0.00 0.00 0.00 54 1010.6
20260904161505 89 22 13.0 0.0 0.00 0.00 0.00 54 1010.6
20260904161005 88 173 4.0 0.0 0.00 0.00 0.00 55 1011.0
20260904160505 87 187 9.0 0.0 0.00 0.00 0.00 56 1010.6
20260904160005 86 58 13.0 0.0 0.00 0.00 0.00 58 1011.0
20260904155505 86 60 9.0 0.0 0.00 0.00 0.00 58 1010.6
20260904155005 86 138 18.0 0.0 0.00 0.00 0.00 58 1010.6
20260904154713 86 119 9.0 0.0 0.00 0.00 0.00 59 1010.6
20260904154212 87 40 13.0 0.0 0.00 0.00 0.00 56 1010.6
20260904153505 86 105 9.0 0.0 0.00 0.00 0.00 59 1011.0
20260904153005 86 64 13.0 0.0 0.00 0.00 0.00 61 1011.0
20260904152713 85 99 23.0 0.0 0.00 0.00 0.00 61 1011.0
20260904152005 85 29 18.0 0.0 0.00 0.00 0.00 64 1011.0
20260904151711 84 110 13.0 0.0 0.00 0.00 0.00 64 1011.0
20260904151005 84 64 13.0 0.0 0.00 0.00 0.00 67 1011.0
20260904150505 84 96 9.0 0.0 0.00 0.00 0.00 66 1011.0
20260904150005 84 111 13.0 0.0 0.00 0.00 0.00 67 1010.6
20260904145713 83 114 27.0 0.0 0.00 0.00 0.00 68 1010.6
20260904145005 83 158 13.0 0.0 0.00 0.00 0.00 69 1010.6
20260904144505 83 175 9.0 0.0 0.00 0.00 0.00 71 1010.6
20260904144005 82 169 9.0 0.0 0.00 0.00 0.00 73 1010.6
20260904143505 82 13 4.0 0.0 0.00 0.00 0.00 75 1010.6
20260904143005 82 160 9.0 0.0 0.00 0.00 0.00 74 1011.0
20260904142504 82 116 9.0 0.0 0.00 0.00 0.00 75 1010.6
20260904142005 81 101 18.0 0.0 0.00 0.00 0.00 76 1011.0
20260904141505 81 166 9.0 0.0 0.00 0.00 0.00 77 1010.6
20260904141005 81 142 9.0 0.0 0.00 0.00 0.00 77 1010.6
20260904140713 81 148 13.0 0.0 0.00 0.00 0.00 77 1010.6
20260904140004 80 160 13.0 0.0 0.00 0.00 0.00 78 1010.6
20260904135505 80 78 9.0 0.0 0.00 0.00 0.00 79 1010.6
20260904135212 80 133 9.0 0.0 0.00 0.00 0.00 79 1010.6
20260904134505 80 101 13.0 0.0 0.00 0.00 0.00 79 1010.6
20260904134005 80 47 4.0 0.0 0.00 0.00 0.00 80 1010.6
20260904133505 80 129 4.0 0.0 0.00 0.00 0.00 81 1010.6
20260904133005 80 134 4.0 0.0 0.00 0.00 0.00 81 1010.6
20260904132505 80 94 9.0 0.0 0.00 0.00 0.00 81 1010.6
20260904132005 79 127 0.0 0.0 0.00 0.00 0.00 82 1010.3
20260904131504 79 88 4.0 0.0 0.00 0.00 0.00 82 1010.6
20260904131005 79 24 9.0 0.0 0.00 0.00 0.00 83 1010.3
20260904130505 78 111 0.0 0.0 0.00 0.00 0.00 83 1010.6
20260904130005 78 76 4.0 0.0 0.00 0.00 0.00 84 1010.3
20260904125505 78 110 4.0 0.0 0.00 0.00 0.00 84 1010.3
20260904125005 78 141 0.0 0.0 0.00 0.00 0.00 84 1010.3
20260904124505 78 53 9.0 0.0 0.00 0.00 0.00 85 1010.3
20260904124005 78 149 0.0 0.0 0.00 0.00 0.00 85 1010.3
20260904123712 78 115 4.0 0.0 0.00 0.00 0.00 85 1010.3
20260904123005 77 34 4.0 0.0 0.00 0.00 0.00 86 1009.9
20260904122505 77 116 9.0 0.0 0.00 0.00 0.00 86 1010.3
20260904122211 77 73 4.0 0.0 0.00 0.00 0.00 86 1010.3
20260904121505 77 120 0.0 0.0 0.00 0.00 0.00 86 1009.6
20260904121005 77 110 0.0 0.0 0.00 0.00 0.00 86 1009.9
20260904120505 77 114 4.0 0.0 0.00 0.00 0.00 86 1009.9
20260904120213 77 119 9.0 0.0 0.00 0.00 0.00 86 1009.6
20260904115505 77 115 0.0 0.0 0.00 0.00 0.00 86 1009.6
20260904115005 77 124 0.0 0.0 0.00 0.00 0.00 86 1009.6
20260904114505 77 93 9.0 0.0 0.00 0.00 0.00 86 1009.6
20260904114004 78 115 0.0 0.0 0.00 0.00 0.00 86 1009.3
20260904113505 78 58 4.0 0.0 0.00 0.00 0.00 86 1009.6
20260904113005 78 102 9.0 0.0 0.00 0.00 0.00 86 1009.6
20260904112505 78 138 0.0 0.0 0.00 0.00 0.00 86 1009.6
20260904112005 78 108 0.0 0.0 0.00 0.00 0.00 85 1009.3
20260904111505 78 121 0.0 0.0 0.00 0.00 0.00 85 1009.6
20260904111005 78 134 0.0 0.0 0.00 0.00 0.00 85 1009.6
20260904110505 78 111 0.0 0.0 0.00 0.00 0.00 85 1009.6
20260904110005 78 91 0.0 0.0 0.00 0.00 0.00 85 1009.6
20260904105504 78 107 0.0 0.0 0.00 0.00 0.00 85 1009.6
20260904105213 78 124 0.0 0.0 0.00 0.00 0.00 84 1009.6
20260904104505 78 89 0.0 0.0 0.00 0.00 0.00 84 1009.6
20260904104004 78 93 4.0 0.0 0.00 0.00 0.00 84 1009.6
20260904103714 79 48 9.0 0.0 0.00 0.00 0.00 83 1009.6
20260904103005 79 128 0.0 0.0 0.00 0.00 0.00 83 1009.3
20260904102711 79 109 0.0 0.0 0.00 0.00 0.00 82 1009.3
20260904102005 79 150 9.0 0.0 0.00 0.00 0.00 82 1009.3
20260904101505 79 92 4.0 0.0 0.00 0.00 0.00 82 1008.9
20260904101005 79 116 4.0 0.0 0.00 0.00 0.00 82 1009.3
20260904100713 79 116 0.0 0.0 0.00 0.00 0.00 82 1009.3
20260904100212 79 71 0.0 0.0 0.00 0.00 0.00 82 1009.6
20260904095711 79 121 4.0 0.0 0.00 0.00 0.00 82 1009.3
20260904095005 79 179 9.0 0.0 0.00 0.00 0.00 82 1009.3
20260904094711 80 126 4.0 0.0 0.00 0.00 0.00 81 1009.6
20260904094005 80 162 9.0 0.0 0.00 0.00 0.00 81 1009.6
20260904093505 80 115 4.0 0.0 0.00 0.00 0.00 81 1009.6
20260904093212 80 118 4.0 0.0 0.00 0.00 0.00 81 1009.6
20260904092713 80 105 0.0 0.0 0.00 0.00 0.00 81 1009.3
20260904092005 80 91 4.0 0.0 0.00 0.00 0.00 81 1009.3
20260904091505 80 74 4.0 0.0 0.00 0.00 0.00 81 1009.6
20260904091005 80 95 9.0 0.0 0.00 0.00 0.00 80 1009.6
20260904090713 80 53 0.0 0.0 0.00 0.00 0.00 80 1009.3
20260904090005 80 28 4.0 0.0 0.00 0.00 0.00 80 1009.6
20260904085505 80 120 4.0 0.0 0.00 0.00 0.00 80 1009.6
20260904085005 80 188 9.0 0.0 0.00 0.00 0.00 80 1009.6
20260904084505 80 84 4.0 0.0 0.00 0.00 0.00 79 1009.6
20260904084212 80 99 13.0 0.0 0.00 0.00 0.00 79 1009.6
20260904083505 80 121 4.0 0.0 0.00 0.00 0.00 80 1009.6
20260904083005 80 148 9.0 0.0 0.00 0.00 0.00 80 1009.6
20260904082504 80 113 0.0 0.0 0.00 0.00 0.00 80 1009.6
20260904082005 80 168 9.0 0.0 0.00 0.00 0.00 81 1009.9
20260904081505 80 129 0.0 0.0 0.00 0.00 0.00 80 1009.9
20260904081005 80 146 4.0 0.0 0.00 0.00 0.00 80 1009.9
20260904080505 80 124 0.0 0.0 0.00 0.00 0.00 80 1009.9
20260904080005 80 22 4.0 0.0 0.00 0.00 0.00 80 1009.9
20260904075505 80 27 4.0 0.0 0.00 0.00 0.00 80 1009.9
20260904075005 80 145 0.0 0.0 0.00 0.00 0.00 80 1009.9
20260904074712 80 121 4.0 0.0 0.00 0.00 0.00 80 1009.9
20260904074005 80 87 4.0 0.0 0.00 0.00 0.00 80 1009.9
20260904073505 80 115 0.0 0.0 0.00 0.00 0.00 80 1009.9
20260904073211 80 87 4.0 0.0 0.00 0.00 0.00 80 1009.9
20260904072505 80 60 9.0 0.0 0.00 0.00 0.00 80 1010.3
20260904072005 80 99 0.0 0.0 0.00 0.00 0.00 80 1010.3
20260904071505 80 70 18.0 0.0 0.00 0.00 0.00 80 1010.3
20260904071005 80 134 0.0 0.0 0.00 0.00 0.00 81 1010.3
20260904070505 80 70 4.0 0.0 0.00 0.00 0.00 81 1010.3
20260904070005 80 57 9.0 0.0 0.00 0.00 0.00 81 1010.3
20260904065505 80 38 9.0 0.0 0.00 0.00 0.00 80 1010.3
20260904065005 80 12 4.0 0.0 0.00 0.00 0.00 80 1010.3
20260904064504 80 28 4.0 0.0 0.00 0.00 0.00 80 1010.6
20260904064005 80 77 9.0 0.0 0.00 0.00 0.00 80 1010.6
20260904063505 80 75 9.0 0.0 0.00 0.00 0.00 80 1010.3
20260904063005 80 18 4.0 0.0 0.00 0.00 0.00 80 1010.3
20260904062712 80 116 4.0 0.0 0.00 0.00 0.00 80 1010.3
20260904062213 80 186 4.0 0.0 0.00 0.00 0.00 79 1010.3
20260904061505 80 104 9.0 0.0 0.00 0.00 0.00 79 1010.6
20260904061213 80 109 9.0 0.0 0.00 0.00 0.00 79 1010.3
20260904060712 80 114 18.0 0.0 0.00 0.00 0.00 79 1010.3
20260904060005 80 136 9.0 0.0 0.00 0.00 0.00 79 1010.3
20260904055505 80 73 0.0 0.0 0.00 0.00 0.00 79 1009.9
20260904055005 80 61 9.0 0.0 0.00 0.00 0.00 79 1010.6
20260904054505 80 127 4.0 0.0 0.00 0.00 0.00 78 1010.3
20260904054005 80 81 9.0 0.0 0.00 0.00 0.00 78 1010.3
20260904053505 80 34 13.0 0.0 0.00 0.00 0.00 78 1010.3
20260904053005 80 160 9.0 0.0 0.00 0.00 0.00 78 1010.3
20260904052212 80 41 9.0 0.0 0.00 0.00 0.00 79 1010.6
20260904051505 80 165 0.0 0.0 0.00 0.00 0.00 79 1010.6
20260904051006 80 129 0.0 0.0 0.00 0.00 0.00 79 1010.3
20260904050713 80 70 18.0 0.0 0.00 0.00 0.00 79 1010.6
20260904045505 80 222 18.0 0.0 0.00 0.00 0.00 78 1010.6
20260904045005 80 136 9.0 0.0 0.00 0.00 0.00 78 1010.6
20260904044505 80 82 9.0 0.0 0.00 0.00 0.00 78 1010.6
20260904044005 80 57 4.0 0.0 0.00 0.00 0.00 78 1010.6
20260904043713 80 53 9.0 0.0 0.00 0.00 0.00 78 1010.6
20260904043004 80 62 13.0 0.0 0.00 0.00 0.00 78 1010.3
20260904042505 81 76 13.0 0.0 0.00 0.00 0.00 77 1010.3
20260904042005 81 85 13.0 0.0 0.00 0.00 0.00 77 1010.6
20260904041505 81 166 4.0 0.0 0.00 0.00 0.00 77 1010.3
20260904041212 81 108 13.0 0.0 0.00 0.00 0.00 76 1010.3
20260904040505 81 151 9.0 0.0 0.00 0.00 0.00 76 1010.3
20260904040005 81 92 9.0 0.0 0.00 0.00 0.00 76 1010.3
20260904035505 81 85 13.0 0.0 0.00 0.00 0.00 76 1010.3
20260904035005 81 75 9.0 0.0 0.00 0.00 0.00 75 1010.3
20260904034504 81 179 9.0 0.0 0.00 0.00 0.00 75 1010.3
20260904034005 81 121 9.0 0.0 0.00 0.00 0.00 74 1010.3
20260904033505 81 38 13.0 0.0 0.00 0.00 0.00 74 1010.3
20260904033212 81 8 13.0 0.0 0.00 0.00 0.00 74 1009.9
20260904032713 81 89 9.0 0.0 0.00 0.00 0.00 73 1009.9
20260904032005 81 44 18.0 0.0 0.00 0.00 0.00 73 1009.6
20260904031713 81 89 9.0 0.0 0.00 0.00 0.00 73 1009.9
20260904031212 81 240 9.0 0.0 0.00 0.00 0.00 72 1009.6
20260904030713 81 61 9.0 0.0 0.00 0.00 0.00 72 1009.6
20260904030005 82 70 18.0 0.0 0.00 0.00 0.00 72 1009.6
20260904025505 82 83 4.0 0.0 0.00 0.00 0.00 72 1009.6
20260904025005 82 34 13.0 0.0 0.00 0.00 0.00 72 1009.6
20260904024505 82 92 18.0 0.0 0.00 0.00 0.00 71 1009.6
20260904024005 82 132 9.0 0.0 0.00 0.00 0.00 71 1009.6
20260904023505 82 153 4.0 0.0 0.00 0.00 0.00 71 1009.6
20260904023005 82 64 18.0 0.0 0.00 0.00 0.00 71 1009.6
20260904022505 82 76 13.0 0.0 0.00 0.00 0.00 70 1009.6
20260904022005 82 124 18.0 0.0 0.00 0.00 0.00 70 1009.3
20260904021505 82 67 32.0 0.0 0.00 0.00 0.00 70 1009.3
20260904021211 82 9 13.0 0.0 0.00 0.00 0.00 69 1009.3
20260904020505 83 58 9.0 0.0 0.00 0.00 0.00 69 1008.9
20260904020005 83 114 13.0 0.0 0.00 0.00 0.00 69 1009.3
20260904015712 83 126 9.0 0.0 0.00 0.00 0.00 69 1009.3
20260904015005 83 112 9.0 0.0 0.00 0.00 0.00 68 1008.9
20260904014505 83 126 4.0 0.0 0.00 0.00 0.00 67 1008.9
20260904014005 83 95 0.0 0.0 0.00 0.00 0.00 66 1008.6
20260904013505 83 62 23.0 0.0 0.00 0.00 0.00 66 1008.6
20260904013005 83 98 9.0 0.0 0.00 0.00 0.00 66 1008.6
20260904012504 83 116 9.0 0.0 0.00 0.00 0.00 66 1008.6
20260904012005 83 86 18.0 0.0 0.00 0.00 0.00 65 1008.6
20260904011505 83 141 4.0 0.0 0.00 0.00 0.00 64 1008.6
20260904011005 84 75 9.0 0.0 0.00 0.00 0.00 63 1008.2
20260904010504 84 12 0.0 0.0 0.00 0.00 0.00 63 1008.6
20260904010005 84 190 9.0 0.0 0.00 0.00 0.00 62 1007.9
20260904005505 85 27 13.0 0.0 0.00 0.00 0.00 61 1008.2
20260904005005 85 53 27.0 0.0 0.00 0.00 0.00 60 1007.9